Wind_Speed
22 22 22 23 23 23 23 23 24 24 25 25 26 26 26 26 25 25 25 25 26 26 26 26 26 26 26 27 27 28 28 28 28 28 28 28 28 28 29 30 29 29
23 23 23 23 23 24 24 24 25 25 25 26 26 27 27 26 26 26 26 26 26 26 26 26 26 26 26 26 27 28 28 28 28 28 28 28 28 28 29 29 28 28
23 23 23 23 23 24 24 25 25 25 26 26 27 27 27 27 27 27 26 27 27 27 27 26 26 26 26 26 27 27 28 28 28 28 28 28 28 28 29 29 27 27
22 22 23 23 24 24 25 25 25 26 26 27 27 27 27 27 27 27 27 27 28 28 28 27 27 27 27 27 27 27 28 28 28 28 27 27 27 28 28 29 27 26
23 23 24 25 25 26 26 26 26 26 26 26 27 27 27 27 28 28 28 28 28 29 29 29 29 29 29 28 28 28 28 29 29 29 28 27 27 27 27 27 27 26
24 25 26 27 27 28 28 28 28 27 27 27 27 27 27 27 28 28 28 29 29 30 30 30 30 30 30 29 29 29 29 29 29 30 29 28 28 28 28 27 26 25
27 27 28 29 29 30 30 30 29 29 28 28 28 28 28 28 29 29 29 30 30 31 31 31 32 32 31 31 30 30 30 30 30 31 31 30 29 29 29 28 27 25
29 29 30 31 31 31 31 31 31 31 31 30 30 30 30 30 30 30 30 31 31 32 32 33 33 33 33 33 32 32 31 31 31 32 32 32 32 31 30 30 28 27
31 31 32 32 32 32 32 32 33 33 33 32 32 32 32 32 31 32 32 32 33 33 33 34 35 35 35 35 35 34 33 32 32 32 33 33 33 33 32 32 31 29
32 33 34 34 34 33 33 34 34 34 34 34 34 34 34 34 33 33 33 34 34 34 35 35 35 36 36 37 37 36 35 34 33 33 33 33 34 34 34 33 32 32
34 35 35 35 35 35 35 35 35 36 36 36 36 36 35 35 35 35 35 35 35 35 35 35 36 36 37 38 38 38 38 37 36 35 34 34 34 35 34 34 33 33
36 36 36 36 36 36 36 37 37 37 37 36 36 36 36 36 36 36 36 37 37 37 37 37 37 37 37 38 39 40 40 40 39 38 37 36 36 35 35 34 34 33
37 37 37 36 36 37 37 37 37 37 37 37 36 36 36 36 36 37 37 38 38 38 39 39 39 39 39 39 40 41 41 41 42 41 40 39 38 37 36 35 34 34
38 37 37 36 37 37 37 37 38 38 37 37 36 36 36 37 37 37 38 38 39 39 40 40 41 41 41 41 41 42 43 43 43 43 43 42 41 40 39 37 36 35
38 37 37 37 37 37 38 38 38 37 36 36 36 37 37 37 38 38 39 39 40 40 41 41 42 42 42 42 42 42 43 44 44 45 45 44 43 43 42 40 39 37
37 37 36 37 37 37 38 38 37 36 36 36 36 37 38 38 38 39 39 40 40 41 41 42 42 42 42 42 42 43 43 43 44 45 45 45 45 44 44 43 42 40
37 37 37 37 37 38 38 37 36 36 36 36 37 37 38 38 39 39 39 39 40 40 41 41 41 42 42 42 42 43 43 43 44 44 45 46 46 46 45 45 44 43
37 37 37 38 38 38 38 37 36 36 36 37 37 38 38 38 38 38 38 38 39 39 40 40 41 41 42 42 43 43 43 44 44 44 45 46 46 47 47 46 46 46
37 37 38 39 39 38 37 36 36 36 37 37 38 38 38 38 37 38 38 38 39 39 40 40 41 42 43 44 45 45 46 46 47 47 47 47 48 48 48 48 48 48
37 38 39 39 39 37 36 35 35 36 37 37 37 37 37 37 37 38 38 38 39 40 41 43 44 45 46 47 48 48 49 49 50 50 50 51 51 51 51 51 50 50
37 38 39 39 38 36 35 34 35 36 36 36 36 36 36 37 37 38 39 40 42 43 45 46 46 46 47 47 47 48 48 48 49 50 51 51 52 53 53 54 54 54
38 39 39 38 37 36 34 34 35 36 36 36 36 36 36 37 38 39 41 42 43 44 44 44 44 44 44 45 46 46 47 48 49 49 50 50 51 51 52 53 54 55
38 38 37 36 36 35 34 35 36 36 35 35 35 35 36 38 39 40 41 42 41 41 41 42 43 43 44 45 46 47 48 49 50 50 51 51 52 52 52 52 53 54
37 36 36 35 35 34 35 36 36 35 34 35 35 36 37 38 39 39 39 39 39 40 41 42 43 44 45 46 47 48 49 49 50 51 51 52 52 53 53 53 53 53
35 35 34 34 34 35 35 35 35 34 34 34 35 36 37 37 37 37 38 38 39 40 41 42 43 44 45 45 46 47 47 48 49 50 51 52 52 52 53 53 53 53
33 34 34 34 34 34 34 33 33 33 34 34 34 35 35 35 36 36 37 38 39 41 42 42 43 44 44 45 45 46 46 47 48 48 49 50 51 51 52 52 52 52
Wind_Direction
285 285 287 289 290 291 292 293 293 294 295 296 296 296 296 297 298 299 300 300 300 300 299 300 300 302 303 303 304 304 306 308 310 313 314 314 313 309 303 299 295 292
284 285 287 289 292 293 295 296 297 297 296 295 295 294 295 296 297 298 298 298 299 298 298 298 299 300 301 302 303 303 304 306 308 311 314 315 315 314 311 306 300 294
284 287 289 291 293 295 297 298 298 297 296 294 294 294 295 296 297 297 297 297 298 298 298 298 298 298 299 300 300 301 301 303 305 308 311 314 315 316 317 315 308 299
284 286 288 291 293 294 296 297 297 296 295 294 294 295 296 297 298 298 298 298 298 298 298 298 297 298 298 299 299 299 299 300 302 305 308 311 313 315 316 318 316 307
283 285 287 289 290 292 293 294 295 296 296 296 297 298 299 299 300 300 299 299 299 298 298 298 297 297 298 299 299 298 299 299 301 302 304 306 309 311 313 315 317 313
282 284 285 287 289 290 292 293 295 296 298 299 300 301 301 301 301 301 300 300 299 299 299 298 298 297 297 298 298 298 298 298 299 300 301 302 304 305 308 310 313 314
281 283 284 286 288 290 292 294 296 297 299 301 302 303 303 302 302 301 301 300 299 299 299 299 298 298 297 297 297 297 297 297 297 298 299 299 300 300 302 304 307 310
281 284 285 287 289 292 295 297 299 299 300 301 302 303 303 303 303 302 301 301 300 300 299 299 299 298 298 298 297 297 297 297 296 296 297 297 298 298 298 299 301 304
283 285 286 288 292 296 300 300 300 300 300 300 301 302 302 302 302 302 302 302 301 300 299 299 298 298 298 298 297 297 296 296 295 294 294 294 295 296 296 296 297 299
283 285 287 290 294 298 300 300 300 300 300 300 300 301 301 301 302 303 302 302 301 300 299 299 298 298 297 297 297 296 296 296 295 294 293 292 292 293 293 294 293 294
282 285 288 292 295 297 299 300 300 300 300 300 300 300 301 302 303 303 303 302 301 301 300 299 298 297 297 296 296 296 296 296 295 294 293 292 291 291 291 291 291 291
282 285 289 292 294 296 298 299 299 300 300 301 301 301 302 303 304 304 304 303 303 303 302 301 300 298 297 296 296 295 295 295 295 295 294 292 291 290 289 289 289 289
282 285 289 291 293 295 297 299 300 300 301 301 302 303 304 304 304 304 304 304 304 304 303 303 302 300 299 297 296 296 295 295 295 294 294 293 292 290 288 287 287 287
283 285 288 290 293 295 297 299 300 301 301 302 303 304 304 305 305 304 304 304 303 303 302 302 301 300 299 297 296 296 295 294 294 293 293 292 292 291 289 287 285 285
283 286 288 290 293 296 298 300 300 301 302 303 304 305 305 305 305 305 304 304 303 303 302 301 300 299 298 296 295 294 293 293 293 292 291 291 290 290 289 287 286 284
283 286 289 292 296 298 299 300 302 303 304 305 306 306 306 306 306 306 305 304 304 303 302 301 300 299 298 297 295 294 292 291 291 290 289 289 288 288 287 287 285 284
284 288 292 295 298 300 302 303 305 306 307 308 308 308 308 308 307 307 306 305 304 303 302 301 300 299 299 298 297 295 294 292 291 289 289 287 287 286 285 284 284 283
286 291 294 297 300 302 304 306 307 308 309 310 310 310 309 309 308 308 307 306 305 304 303 302 301 301 300 299 298 296 295 294 292 290 289 288 286 285 284 283 282 282
289 293 296 299 302 304 306 307 308 310 310 310 310 310 309 309 308 308 307 306 306 305 304 304 303 302 301 300 299 298 296 295 293 291 290 288 286 285 284 282 281 281
291 295 298 300 303 304 306 307 309 310 310 310 309 309 309 309 309 308 308 308 307 307 306 305 304 303 302 301 299 298 297 295 294 292 290 288 286 284 283 281 280 279
293 296 298 300 302 303 306 307 308 309 309 309 309 309 310 310 310 310 310 310 309 308 307 305 304 304 303 302 301 300 299 297 296 294 291 289 287 284 282 280 279 277
294 296 298 299 301 304 305 306 308 309 309 309 310 311 311 311 311 311 311 310 309 308 308 308 308 308 308 308 307 306 304 303 301 298 296 293 289 286 283 280 277 276
294 295 297 299 302 304 304 306 308 309 309 310 311 312 312 312 312 311 311 311 311 311 312 313 313 313 312 311 310 309 308 306 305 302 300 297 294 291 287 283 279 275
293 295 298 301 303 304 304 306 308 309 310 311 311 311 312 312 312 312 313 313 314 315 315 315 315 314 314 313 312 311 310 309 307 305 303 300 298 294 291 287 282 277
295 297 300 302 303 304 305 306 307 308 309 309 310 311 312 313 314 315 315 316 316 316 316 316 315 315 315 315 314 314 313 312 311 310 308 305 302 299 295 290 286 281
297 298 300 301 302 303 305 306 306 306 307 308 311 313 314 315 315 316 316 316 317 317 317 317 317 317 317 316 316 316 316 315 314 313 312 310 307 303 299 294 289 284
Height
5801 5801 5801 5801 5800 5800 5799 5799 5798 5797 5796 5795 5794 5793 5792 5791 5790 5789 5788 5786 5785 5784 5783 5781 5780 5779 5777 5775 5773 5771 5770 5768 5767 5765 5763 5761 5759 5757 5755 5753 5751 5750
5798 5798 5798 5798 5798 5797 5797 5796 5795 5794 5793 5792 5791 5790 5789 5788 5787 5786 5785 5784 5783 5781 5780 5779 5777 5776 5774 5772 5770 5769 5767 5765 5764 5762 5760 5758 5756 5754 5752 5750 5748 5747
5796 5796 5796 5795 5795 5794 5794 5793 5792 5791 5791 5790 5789 5788 5787 5785 5784 5783 5782 5781 5780 5778 5777 5776 5774 5773 5771 5769 5768 5766 5764 5763 5761 5759 5757 5755 5753 5751 5748 5746 5745 5743
5794 5793 5793 5793 5792 5792 5791 5791 5790 5789 5788 5787 5786 5785 5784 5782 5781 5780 5779 5778 5777 5775 5774 5772 5771 5769 5768 5766 5765 5763 5761 5760 5758 5756 5754 5752 5750 5748 5746 5744 5742 5740
5791 5791 5790 5790 5790 5789 5789 5788 5787 5786 5786 5784 5783 5782 5780 5779 5778 5777 5776 5774 5773 5772 5771 5769 5768 5766 5765 5763 5762 5760 5758 5756 5755 5753 5751 5749 5747 5745 5743 5741 5739 5737
5788 5788 5788 5788 5787 5787 5786 5785 5784 5783 5783 5781 5780 5778 5777 5776 5774 5773 5772 5771 5769 5768 5767 5766 5764 5763 5761 5759 5758 5756 5755 5753 5751 5749 5748 5746 5744 5742 5740 5739 5737 5735
5785 5785 5785 5785 5784 5784 5783 5782 5781 5780 5779 5777 5776 5775 5773 5772 5771 5769 5768 5767 5766 5764 5763 5762 5761 5759 5757 5756 5754 5752 5751 5749 5748 5746 5744 5743 5741 5739 5737 5736 5734 5733
5782 5782 5782 5782 5781 5780 5779 5778 5777 5776 5775 5773 5772 5771 5769 5768 5767 5765 5764 5763 5762 5760 5759 5758 5757 5755 5754 5752 5750 5749 5747 5745 5744 5742 5741 5739 5738 5736 5734 5733 5731 5730
5779 5779 5779 5778 5777 5776 5775 5774 5773 5772 5771 5769 5768 5767 5766 5764 5763 5761 5760 5759 5757 5756 5755 5754 5752 5751 5749 5748 5746 5745 5743 5742 5740 5739 5737 5735 5734 5732 5731 5729 5728 5726
5776 5776 5775 5774 5774 5773 5772 5771 5769 5768 5767 5765 5764 5763 5761 5760 5759 5757 5756 5755 5753 5752 5751 5750 5748 5746 5745 5743 5742 5741 5739 5738 5736 5735 5733 5732 5730 5728 5727 5725 5724 5723
5773 5772 5772 5771 5770 5769 5768 5767 5765 5764 5763 5761 5760 5758 5757 5756 5754 5753 5752 5750 5749 5748 5746 5745 5744 5742 5741 5739 5737 5736 5735 5734 5732 5731 5729 5727 5726 5724 5723 5722 5720 5719
5770 5769 5768 5767 5766 5765 5764 5763 5761 5760 5758 5757 5756 5754 5753 5751 5750 5748 5747 5745 5744 5743 5741 5740 5739 5738 5736 5734 5733 5731 5730 5728 5727 5726 5725 5723 5721 5720 5718 5717 5716 5714
5766 5766 5765 5764 5763 5762 5760 5759 5757 5756 5755 5753 5752 5750 5748 5747 5745 5744 5742 5741 5739 5738 5736 5735 5733 5732 5731 5729 5728 5726 5725 5723 5722 5721 5719 5718 5716 5715 5714 5712 5711 5710
5763 5762 5762 5761 5759 5758 5757 5755 5754 5752 5751 5749 5748 5746 5744 5743 5741 5739 5737 5736 5734 5733 5731 5730 5728 5727 5726 5724 5722 5720 5719 5717 5716 5715 5713 5712 5711 5710 5708 5707 5706 5705
5760 5759 5758 5757 5756 5754 5753 5752 5750 5748 5747 5745 5743 5742 5740 5738 5736 5734 5733 5731 5729 5727 5726 5724 5723 5721 5720 5719 5717 5715 5714 5712 5710 5708 5707 5706 5705 5704 5702 5701 5700 5699
5756 5755 5754 5753 5752 5750 5749 5748 5746 5744 5743 5741 5739 5737 5735 5733 5731 5730 5728 5726 5724 5722 5721 5719 5717 5716 5714 5713 5711 5710 5708 5706 5704 5703 5701 5700 5699 5698 5696 5695 5694 5693
5752 5751 5750 5749 5748 5746 5745 5743 5741 5740 5738 5736 5734 5732 5730 5729 5727 5725 5723 5721 5719 5717 5716 5714 5712 5710 5708 5706 5705 5703 5701 5700 5698 5697 5695 5693 5692 5691 5690 5689 5687 5686
5748 5747 5746 5745 5744 5742 5740 5739 5737 5735 5733 5731 5730 5728 5726 5724 5722 5720 5718 5716 5715 5713 5711 5709 5707 5705 5703 5701 5699 5697 5695 5693 5692 5690 5688 5687 5685 5684 5683 5682 5681 5679
5744 5743 5742 5741 5739 5738 5736 5734 5732 5731 5729 5727 5725 5723 5722 5720 5718 5716 5714 5712 5710 5708 5706 5704 5702 5700 5698 5695 5693 5691 5689 5687 5685 5683 5682 5680 5678 5677 5675 5674 5673 5672
5740 5739 5738 5737 5735 5734 5732 5730 5728 5727 5725 5723 5721 5719 5717 5715 5714 5712 5709 5707 5705 5703 5701 5699 5697 5694 5692 5689 5687 5684 5682 5680 5677 5675 5674 5672 5671 5669 5668 5666 5666 5665
5737 5736 5735 5733 5732 5730 5728 5726 5725 5723 5721 5719 5717 5715 5713 5711 5709 5707 5705 5703 5701 5698 5696 5694 5691 5688 5685 5682 5680 5677 5674 5672 5669 5667 5665 5663 5662 5660 5659 5658 5657 5656
5733 5732 5731 5729 5727 5726 5724 5722 5721 5719 5718 5716 5713 5711 5709 5707 5705 5703 5700 5698 5696 5693 5691 5688 5685 5682 5679 5676 5673 5670 5667 5664 5662 5659 5657 5655 5653 5651 5650 5648 5647 5646
5729 5728 5727 5725 5723 5722 5720 5719 5718 5716 5714 5711 5709 5707 5705 5702 5700 5698 5696 5693 5691 5688 5685 5682 5679 5676 5673 5670 5667 5664 5661 5658 5655 5652 5649 5646 5644 5642 5640 5638 5637 5636
5725 5724 5722 5721 5719 5718 5717 5716 5714 5712 5709 5707 5705 5703 5700 5698 5696 5694 5691 5689 5686 5683 5681 5678 5675 5672 5668 5665 5662 5659 5655 5652 5648 5645 5642 5638 5635 5632 5630 5628 5626 5625
5721 5720 5718 5717 5716 5715 5713 5712 5710 5708 5705 5703 5701 5699 5696 5694 5692 5689 5687 5684 5682 5679 5676 5673 5670 5667 5664 5660 5657 5654 5650 5646 5642 5638 5634 5630 5626 5623 5619 5617 5615 5613
5717 5716 5715 5714 5713 5711 5710 5708 5706 5704 5702 5699 5697 5695 5693 5690 5688 5686 5683 5680 5677 5675 5672 5668 5665 5662 5659 5656 5652 5649 5645 5641 5637 5632 5627 5623 5618 5614 5610 5607 5604 5601